Printer-friendly version

IAU Minor Planet Center

Minor Planet Center

MPEC 2006-S81 : 2006 SQ134

The following Minor Planet Electronic Circular may be linked-to from your own Web pages, but must not otherwise be redistributed electronically.


Read MPEC 2006-S80 Read MPEC 2006-S82


M.P.E.C. 2006-S81                                Issued 2006 Sept. 28, 22:13 UT

     The Minor Planet Electronic Circulars contain information on unusual
         minor planets and routine data on comets.  They are published
   on behalf of Commission 20 of the International Astronomical Union by the
          Minor Planet Center, Smithsonian Astrophysical Observatory,
                          Cambridge, MA 02138, U.S.A.

                  Supported in part by the Brinson Foundation
                  Supported in part by the TABASGO Foundation
             Prepared using the Tamkin Foundation Computer Network

                              MPC@CFA.HARVARD.EDU
          URL http://cfa-www.harvard.edu/iau/mpc.html  ISSN 1523-6714

                                  2006 SQ134

Observations:
     K06SD4Q* C2006 09 27.29165 02 41 07.36 +16 41 53.9          20.5 V ES081G96
     K06SD4Q  C2006 09 27.29902 02 41 11.90 +16 41 10.8          20.5 V ES081G96
     K06SD4Q  C2006 09 27.30646 02 41 16.54 +16 40 27.3          20.6 V ES081G96
     K06SD4Q  C2006 09 27.31398 02 41 21.15 +16 39 43.0          20.3 V ES081G96
     K06SD4Q  C2006 09 27.46465 02 42 53.78 +16 24 38.3          20.3 V ES081G96
     K06SD4Q  C2006 09 27.46780 02 42 55.72 +16 24 18.8          20.6 V ES081G96
     K06SD4Q  C2006 09 27.47094 02 42 57.67 +16 23 59.4          21.1 V ES081G96
     K06SD4Q  C2006 09 27.47405 02 42 59.58 +16 23 40.1          20.5 V ES081G96
     K06SD4Q  C2006 09 28.29718 02 52 26.04 +14 56 02.6          20.6 V ES081G96
     K06SD4Q  C2006 09 28.30357 02 52 30.25 +14 55 20.6          21.3 V ES081G96
     K06SD4Q  C2006 09 28.30962 02 52 34.20 +14 54 40.3                 ES081G96
     K06SD4Q  C2006 09 28.31561 02 52 38.19 +14 54 00.9          20.5 V ES081G96
     K06SD4Q tC2006 09 28.37662 02 53 18.34 +14 47 17.0          20.8 V ES081291
     K06SD4Q tC2006 09 28.38074 02 53 21.07 +14 46 49.5          20.9 V ES081291
     K06SD4Q tC2006 09 28.38494 02 53 23.96 +14 46 20.5          21.0 V ES081291

Observer details:
291 LPL/Spacewatch II.  Observer T. H. Bressi.  1.8-m f/2.7 reflector + CCD.
G96 Mt. Lemmon Survey.  Observer R. A. Kowalski.  Measurers E. C. Beshore,
    E. J. Christensen, G. J. Garradd, A. R. Gibbs, A. D. Grauer, R. E. Hill,
    R. A. Kowalski, S. M. Larson, R. H. McNaught.  1.5-m reflector + CCD.

Orbital elements:
2006 SQ134                                               Earth MOID = 0.0390 AU
Epoch 2006 Sept. 22.0 TT = JDT 2454000.5                MPC
M 313.62332              (2000.0)            P               Q
n   0.71072800     Peri.  246.88992     +0.28178095     -0.95924761
a   1.2435610      Node   186.84651     +0.93222240     +0.27890478
e   0.2528843      Incl.   10.17530     +0.22707024     +0.04534464
P   1.39           H   24.7           G   0.15           U   8
Residuals in seconds of arc
060927 G96  0.1+  0.1-    060927 G96  0.0   0.3+    060928 G96  0.6-  1.0-
060927 G96  0.2-  0.2-    060927 G96  0.0   0.2+    060928 G96  0.1-  0.9-
060927 G96  0.4+  0.1-    060927 G96  0.2-  0.1+    060928 291  0.9-  0.4+
060927 G96  0.1-  0.3-    060928 G96  0.4+  0.6-    060928 291  0.5-  0.5+
060927 G96  0.1+  0.4+    060928 G96  0.1+  0.6-    060928 291  1.5+  0.2-

Ephemeris:
2006 SQ134               a,e,i = 1.24, 0.25, 10                  q = 0.9291
Date    TT    R. A. (2000) Decl.     Delta      r     Elong.  Phase     V
2006 09 22    01 52.71   +23 07.7    0.0941   1.080   143.0    34.0    21.1
2006 09 24    02 08.94   +21 11.6    0.0858   1.073   142.8    34.5    20.9
2006 09 26    02 27.58   +18 41.3    0.0781   1.065   141.9    35.5    20.8
2006 09 28    02 48.93   +15 29.4    0.0712   1.058   140.2    37.4    20.6
2006 09 30    03 13.21   +11 28.9    0.0654   1.051   137.2    40.4    20.5
2006 10 02    03 40.45   +06 36.8    0.0608   1.043   132.9    44.7    20.4
2006 10 04    04 10.38   +00 58.9    0.0576   1.036   127.1    50.4    20.5
2006 10 06    04 42.32   -05 07.3    0.0562   1.029   120.2    57.1    20.6
2006 10 08    05 15.24   -11 14.2    0.0565   1.022   112.7    64.4    20.8
2006 10 10    05 47.89   -16 52.7    0.0585   1.016   105.3    71.5    21.1
2006 10 12    06 19.11   -21 43.3    0.0619   1.009    98.5    78.0    21.4

Kyle E. Smalley              (C) Copyright 2006 MPC           M.P.E.C. 2006-S81

Read MPEC 2006-S80 Read MPEC 2006-S82


Our Web policy. Index to the CBAT/MPC/ICQ pages.


Valid HTML 4.01!